This is the latest recevied weather packets stored in our database for station/object KG0HG. If no packets are shown the sender has not sent any weather packets the latest 10 day(s).
| Time | Temp. | Humidity | Pressure | Rain* | Wind** | Luminosity | Snow |
|---|---|---|---|---|---|---|---|
| 1777810057 | 11.11° C | 56% | 1015.1 hPa | 0 mm | - | 10 W/m² | - |
| 1777809755 | 10.56° C | 57% | 1015.1 hPa | 0 mm | - | 10 W/m² | - |
| 1777809452 | 10.56° C | 58% | 1015.3 hPa | 0 mm | - | 8 W/m² | - |
| 1777809150 | 10.56° C | 59% | 1015.2 hPa | 0 mm | - | 7 W/m² | - |
| 1777808848 | 10.56° C | 58% | 1015.3 hPa | 0 mm | - | 6 W/m² | - |
| 1777808544 | 10° C | 59% | 1015.4 hPa | 0 mm | - | 6 W/m² | - |
| 1777808241 | 10.56° C | 59% | 1015.2 hPa | 0 mm | - | 4 W/m² | - |
| 1777807940 | 10° C | 59% | 1015.2 hPa | 0 mm | - | 3 W/m² | - |
| 1777807637 | 10° C | 60% | 1015.1 hPa | 0 mm | - | 2 W/m² | - |
| 1777807334 | 10° C | 60% | 1015.3 hPa | 0 mm | - | 0 W/m² | - |
| 1777807030 | 10.56° C | 59% | 1015 hPa | 0 mm | - | 0 W/m² | - |
| 1777806727 | 10.56° C | 58% | 1015 hPa | 0 mm | - | 0 W/m² | - |
| 1777806423 | 10.56° C | 58% | 1015 hPa | 0 mm | - | 0 W/m² | - |
| 1777806120 | 10.56° C | 58% | 1014.9 hPa | 0 mm | - | 0 W/m² | - |
| 1777805816 | 10.56° C | 59% | 1014.8 hPa | 0 mm | - | 0 W/m² | - |
| 1777805514 | 10° C | 59% | 1015 hPa | 0 mm | - | 0 W/m² | - |
| 1777805211 | 10° C | 60% | 1014.9 hPa | 0 mm | - | 0 W/m² | - |
| 1777804909 | 10° C | 61% | 1015.2 hPa | 0 mm | - | 0 W/m² | - |
| 1777804607 | 10° C | 62% | 1015.2 hPa | 0 mm | - | 0 W/m² | - |
| 1777804304 | 10° C | 60% | 1015.3 hPa | 0 mm | - | 0 W/m² | - |
| 1777804001 | 9.44° C | 62% | 1015.4 hPa | 0 mm | - | 0 W/m² | - |
| 1777803698 | 9.44° C | 62% | 1015.6 hPa | 0 mm | - | 0 W/m² | - |
| 1777803393 | 9.44° C | 62% | 1015.4 hPa | 0 mm | - | 0 W/m² | - |
| 1777803092 | 9.44° C | 63% | 1015.6 hPa | 0 mm | - | 0 W/m² | - |
| 1777802788 | 8.89° C | 66% | 1015.7 hPa | 0 mm | - | 0 W/m² | - |
* Rain latest hour (hover to see other rain measurements)
** Current wind speed in m/s (hover to see current wind gust speed)